Theta_e
325 325 323 321 320 320 316 308 305 304 302 301 304 307 308 308 308 309 310 311 313 314 314 315 314 314 315 315 315 315 316 316 316 316 316 317 316 316 316 316 315 315 315 315 315 314 314 313 313 313 311 309 309 309 308 308 307 306 306 306 305 305 304 304 304 304 304 304 304 303 303 303 303 303 302 302 302 302 302 302 302 302 302 302 302
327 327 325 324 323 321 319 313 309 310 307 306 309 310 309 309 310 310 311 312 313 313 313 314 313 314 314 314 315 314 315 315 315 315 315 315 314 314 314 314 313 313 313 313 313 313 313 312 312 312 310 309 309 308 308 307 307 306 305 305 304 304 304 303 303 303 303 303 303 302 302 302 302 302 302 302 302 302 302 301 302 301 301 301 301
328 328 326 325 324 322 320 316 313 313 311 310 312 312 310 311 311 311 312 313 312 312 312 312 311 312 313 313 313 313 314 314 314 314 314 313 313 313 312 312 312 311 311 311 311 311 311 311 311 311 310 309 308 307 307 306 305 305 305 304 303 303 303 303 303 303 302 302 302 302 302 301 301 301 301 301 301 301 302 301 301 301 301 301 301
328 328 327 326 325 323 320 318 316 314 312 313 314 313 313 313 312 312 312 312 311 310 309 309 309 309 311 312 312 312 312 312 313 312 312 312 312 311 310 310 310 309 309 310 310 310 309 309 309 309 309 308 308 307 306 305 304 304 304 303 303 303 302 302 302 302 302 302 301 301 301 301 301 301 301 301 301 301 302 302 301 301 301 301 301
329 328 328 327 326 323 321 319 318 315 314 315 314 314 314 313 312 311 310 309 309 308 308 307 306 306 308 310 310 311 311 311 311 310 309 309 309 307 306 307 306 306 307 308 308 308 308 308 308 308 308 307 307 306 305 304 304 304 303 303 303 302 302 302 301 301 301 301 301 301 301 301 301 301 301 301 301 301 301 301 301 301 301 300 300
330 329 328 328 326 324 322 321 319 317 316 315 315 315 314 313 312 310 309 308 307 306 306 305 302 302 303 306 308 308 309 309 308 306 304 304 304 303 303 304 304 304 305 306 306 306 307 307 307 307 307 306 306 305 305 304 303 303 303 302 302 301 301 301 301 301 301 301 300 300 301 301 301 301 301 301 301 301 301 300 300 300 300 300 300
332 330 328 328 327 325 323 322 320 318 317 316 315 314 315 314 313 311 308 306 305 304 304 303 299 297 299 301 304 304 304 303 302 301 300 301 301 301 301 302 302 303 303 303 303 303 305 306 306 306 306 306 305 305 304 303 303 302 302 301 301 301 300 300 300 300 300 300 300 300 301 300 301 301 301 301 301 301 300 300 300 299 299 299 299
332 331 329 328 328 326 325 324 322 320 318 317 315 315 315 314 313 314 311 306 304 303 302 300 297 295 295 296 298 298 298 297 296 296 297 298 298 298 298 298 299 299 299 299 298 299 301 302 303 304 305 305 305 304 304 303 303 302 302 301 300 300 300 300 300 300 300 300 299 300 300 300 300 300 300 300 300 300 300 300 299 299 299 299 299
332 332 331 329 328 327 326 325 323 321 320 319 316 315 315 314 311 312 313 308 303 302 300 298 296 295 294 294 294 294 294 294 294 294 294 295 295 295 295 294 294 294 293 293 294 295 297 296 298 300 303 304 304 304 303 303 302 302 302 301 300 299 299 299 299 299 299 299 299 299 300 299 299 300 300 300 300 299 299 299 299 298 298 298 298
333 332 331 330 329 328 327 325 324 323 322 321 318 316 316 315 311 308 310 309 305 302 300 297 296 294 294 293 293 293 292 292 292 292 292 292 292 292 292 291 291 290 289 289 290 292 293 293 293 295 299 300 300 302 303 302 302 302 301 300 300 299 298 298 299 299 299 298 299 299 299 299 299 299 299 299 299 299 299 298 298 298 298 298 298
333 332 331 331 330 329 327 326 324 323 322 321 319 317 315 313 311 307 305 305 306 304 300 297 295 294 294 293 293 292 292 292 292 292 291 291 290 290 290 290 289 289 288 288 288 289 289 290 290 290 291 292 293 296 298 300 301 301 301 300 300 299 298 298 298 298 298 298 298 298 298 298 298 298 298 298 298 298 298 298 297 297 297 297 297
334 333 332 331 331 329 328 327 325 323 322 322 320 318 316 313 311 307 303 301 302 302 300 298 295 294 293 293 293 292 292 292 291 291 290 290 290 289 289 289 289 289 288 288 288 288 287 287 287 287 287 287 288 289 291 294 299 300 300 300 299 299 298 297 297 297 297 297 297 297 297 298 298 298 298 298 298 298 298 297 297 297 297 297 297
332 333 332 332 330 329 329 327 325 324 323 323 322 319 317 314 309 306 304 301 299 299 299 298 296 293 292 292 292 292 291 292 291 291 290 290 289 289 289 288 288 288 288 288 287 287 287 286 286 286 287 287 287 287 287 289 293 297 298 299 299 298 298 297 297 296 296 297 297 296 297 297 297 297 297 298 298 298 298 297 297 297 297 296 297
330 332 332 331 330 329 329 328 326 324 323 322 322 320 316 312 308 304 303 302 299 298 299 300 297 294 292 292 291 291 290 290 291 290 290 289 289 289 288 288 287 287 287 287 287 287 287 287 286 286 286 287 287 287 287 287 287 291 295 297 298 298 297 297 296 296 296 296 296 296 297 297 297 296 297 297 297 297 297 297 297 297 297 296 297
330 331 332 331 331 330 329 329 327 325 323 321 320 318 315 311 309 307 303 301 299 298 300 302 300 294 292 294 293 291 291 290 289 290 289 289 289 288 288 287 287 287 286 286 286 287 286 286 286 286 286 286 286 286 286 286 286 286 289 292 294 296 297 296 296 296 296 295 296 296 296 296 296 296 296 296 297 297 297 297 297 297 297 296 297
331 331 331 331 331 331 329 328 328 326 324 321 319 317 315 312 310 309 306 302 299 297 299 301 302 299 295 295 294 294 296 293 289 289 289 289 289 288 288 287 287 286 286 286 286 286 286 286 286 286 286 286 286 286 285 285 285 285 286 286 287 291 294 296 295 295 295 295 295 296 296 296 295 295 295 295 296 296 296 296 296 296 296 296 296
330 330 331 330 330 330 329 328 327 326 324 322 321 318 315 314 312 311 309 307 302 298 298 299 302 305 302 298 295 297 299 293 290 290 288 289 289 288 288 288 287 287 287 286 285 286 286 286 286 286 286 286 286 286 285 285 285 285 285 285 285 285 288 291 293 294 294 294 294 294 295 295 293 293 293 293 294 295 295 296 296 296 295 295 295
328 329 330 329 329 329 328 328 327 327 326 322 321 318 315 314 312 311 309 311 308 300 298 299 300 302 303 302 300 300 298 292 291 292 288 288 289 288 289 288 287 287 287 287 286 285 286 285 286 286 286 286 286 285 285 285 285 284 284 284 285 284 284 286 288 290 290 290 290 291 293 293 292 292 291 292 293 294 295 295 295 295 295 295 295
327 327 328 328 328 328 328 328 326 326 326 323 320 317 316 314 311 311 310 309 309 304 300 300 300 299 300 302 301 301 299 294 293 293 290 288 288 289 289 288 287 287 287 287 286 285 285 285 286 286 286 286 285 285 285 285 285 284 284 284 284 284 284 284 284 285 285 285 285 286 288 291 291 290 290 291 292 293 294 294 294 294 294 294 294
326 326 327 327 328 328 327 327 325 324 325 324 322 318 316 313 311 311 310 308 309 307 303 301 300 300 300 301 301 301 299 296 295 294 292 291 289 288 288 288 287 287 288 287 286 285 285 285 285 285 286 285 285 285 285 285 285 284 284 284 284 284 284 284 284 284 284 284 284 284 285 287 287 287 288 290 291 292 293 294 294 294 293 293 294
324 324 324 325 326 327 327 326 324 322 323 323 321 318 316 314 314 313 312 309 309 308 306 303 303 303 301 300 300 300 297 296 296 294 293 294 291 288 287 288 287 287 288 287 286 285 285 285 285 285 285 285 285 285 285 285 285 285 284 284 284 284 284 284 284 284 284 284 284 284 284 284 284 285 286 288 290 291 292 293 293 293 293 293 293
322 322 323 324 324 325 325 324 323 321 321 321 320 318 316 316 316 316 314 311 309 307 306 306 305 304 303 302 300 299 297 296 296 295 294 294 292 288 287 288 287 287 287 287 286 285 285 285 285 285 285 285 285 285 285 285 285 285 285 284 284 284 284 284 284 284 284 284 284 284 284 283 284 284 284 285 288 290 292 293 293 292 292 292 292
319 320 321 322 321 322 321 321 321 320 320 321 319 319 318 317 317 316 314 312 309 307 306 307 305 303 303 302 301 300 299 297 296 297 295 293 292 289 287 288 287 287 287 287 286 286 285 285 285 285 285 285 285 285 285 285 285 285 285 284 284 284 284 284 284 284 284 284 284 283 284 283 283 283 283 283 285 288 291 292 292 292 292 292 292
317 318 319 319 319 319 318 317 318 319 320 320 320 320 319 318 317 316 313 310 308 306 305 305 305 304 303 302 302 301 300 299 298 297 296 295 294 290 287 288 287 287 287 287 286 286 285 285 285 285 285 285 285 285 285 285 285 285 285 284 284 284 284 284 284 284 284 284 284 283 283 283 283 283 283 283 283 286 289 291 291 291 291 291 291
317 317 317 318 318 317 316 316 317 318 319 320 320 320 319 318 317 316 314 311 308 306 305 305 305 305 304 304 303 301 300 299 298 298 297 296 294 290 288 288 288 287 287 287 286 286 286 285 285 285 285 285 285 285 285 285 285 285 284 284 284 284 284 284 284 283 283 283 283 283 283 283 283 282 283 283 282 285 287 289 290 290 290 290 290
317 318 319 319 319 318 317 318 319 319 319 319 319 319 318 317 316 315 314 312 309 307 306 305 305 305 305 304 303 302 301 299 298 298 297 295 294 292 289 288 288 288 287 287 287 286 286 286 285 284 284 285 285 285 285 284 285 285 284 284 284 284 284 284 283 283 283 283 283 283 283 283 283 282 282 282 282 283 284 286 288 290 290 289 289
319 319 320 320 320 320 319 319 321 320 319 319 318 318 316 315 315 313 312 310 308 306 305 305 305 305 304 303 302 301 300 299 297 297 296 294 294 293 290 289 289 288 287 287 287 286 287 287 286 285 285 284 285 285 285 284 284 285 284 284 284 284 284 283 283 283 283 283 283 283 283 282 282 282 282 282 282 281 282 283 285 287 288 288 287
319 319 319 320 321 321 320 320 321 320 318 318 317 316 315 314 313 312 311 310 307 305 305 305 306 305 304 302 301 300 299 297 296 295 295 294 293 293 292 290 290 289 287 287 286 286 287 286 286 286 286 285 285 285 285 284 284 285 284 284 284 284 284 284 283 283 283 283 283 282 282 282 282 282 282 282 281 281 281 281 282 284 286 287 287
318 318 318 319 320 320 321 320 320 318 317 316 316 316 314 313 313 312 311 309 307 305 305 305 305 305 303 301 300 298 297 296 296 294 293 292 292 292 292 290 290 290 289 288 287 286 287 287 286 287 287 286 286 286 285 285 285 285 285 284 284 284 284 284 283 283 283 282 282 282 282 282 282 282 282 281 281 281 281 281 282 285 286 287 286
316 316 317 318 318 319 320 320 319 318 317 316 315 315 314 313 312 311 310 308 306 305 305 305 304 302 301 299 299 298 296 295 295 293 291 291 291 291 291 290 289 289 289 289 288 287 287 288 287 287 287 287 287 286 286 286 285 285 285 284 284 284 284 284 283 283 283 283 282 282 282 282 282 282 281 281 281 281 281 281 283 285 285 285 286
314 314 315 316 317 318 318 317 316 316 316 315 314 313 312 311 309 308 307 307 305 304 304 304 303 301 300 298 298 297 295 293 292 291 290 289 290 290 289 289 289 289 288 288 288 287 287 287 287 287 287 287 287 286 286 285 285 285 284 284 284 284 283 283 283 283 283 283 282 282 282 282 282 282 281 281 281 281 281 281 282 284 283 284 285
312 312 313 314 315 315 315 314 313 312 313 313 311 309 309 308 307 306 305 305 304 303 303 303 302 301 300 298 297 295 293 291 290 289 288 288 288 288 288 288 288 287 287 287 287 286 286 287 287 287 287 286 286 286 285 285 284 284 284 284 284 283 283 283 283 283 283 283 283 283 283 283 283 282 282 282 282 281 281 281 281 282 282 284 285
312 312 312 313 313 314 313 312 311 311 311 311 310 307 307 306 305 304 303 303 302 302 302 301 300 300 299 297 295 293 291 290 289 288 287 287 287 287 287 287 286 286 286 286 286 285 285 286 286 286 286 285 285 285 285 284 284 284 284 284 283 283 283 283 283 284 284 284 284 284 284 284 283 283 282 282 283 282 281 281 281 282 282 283 284
311 312 312 312 312 312 312 310 310 309 309 309 308 306 305 305 303 302 302 301 301 300 300 299 298 298 297 296 293 290 288 288 288 287 287 286 286 286 286 286 286 286 286 286 285 284 284 285 285 285 285 285 284 284 284 284 284 283 283 283 283 283 283 283 283 284 284 284 284 283 284 284 284 283 283 283 283 282 282 282 282 282 282 282 282
311 311 311 312 312 311 310 308 308 308 307 306 305 303 304 304 302 301 301 300 299 299 299 298 297 295 294 293 290 287 287 287 287 286 286 286 286 286 286 286 287 286 286 285 284 284 284 284 284 284 283 284 284 283 283 283 283 283 283 283 283 283 283 283 283 284 284 284 283 283 283 284 284 283 283 283 283 282 282 283 283 282 282 282 281
309 310 310 310 310 309 307 306 306 306 305 305 303 301 301 302 301 301 299 298 298 298 298 297 296 294 293 291 288 286 287 287 286 285 285 285 286 286 287 287 287 286 286 285 285 284 283 283 283 284 284 283 283 283 283 283 283 282 282 282 282 282 283 283 283 283 284 283 283 283 283 283 283 283 283 283 283 282 283 283 283 283 282 282 282
308 308 308 308 308 307 306 305 305 305 304 303 302 300 300 299 299 299 298 297 296 297 297 296 295 294 292 290 288 286 286 286 285 285 285 285 287 288 288 288 287 287 287 287 286 285 284 284 284 285 285 284 283 283 283 282 282 282 282 282 282 282 283 283 283 283 283 283 283 283 283 283 283 283 283 283 283 282 282 283 283 282 282 282 281
306 306 306 306 306 306 306 305 305 304 303 301 300 299 298 297 297 297 296 295 295 295 295 294 294 293 291 289 287 286 286 286 285 285 286 288 289 290 290 289 289 289 289 288 287 286 286 286 286 285 285 285 285 285 284 283 282 282 282 282 283 283 283 283 283 283 283 282 283 283 283 283 283 283 283 283 283 283 282 282 282 282 282 281 281
304 304 304 304 304 306 306 304 303 301 300 299 298 297 296 295 295 294 294 294 294 293 293 292 291 290 289 287 286 286 286 286 285 286 289 291 292 291 291 291 291 291 290 289 288 287 287 286 286 285 285 285 285 285 284 283 282 282 282 282 282 283 283 282 282 282 282 282 282 282 282 282 282 282 282 282 283 282 282 282 282 282 281 281 281
303 303 303 303 304 304 303 301 300 299 297 296 295 294 293 293 293 293 293 293 292 291 291 289 288 288 287 286 286 286 286 286 288 291 293 294 293 292 292 292 292 291 291 290 289 288 287 286 285 285 285 285 284 284 283 283 282 282 283 282 282 282 282 282 282 282 282 282 282 282 282 282 282 282 282 282 282 282 281 281 281 280 280 280 280
302 302 302 302 302 301 300 299 298 297 295 294 293 292 292 291 292 292 292 292 291 290 288 287 286 286 286 286 285 285 286 289 292 294 294 294 294 293 293 292 292 291 291 290 289 289 288 286 285 285 284 284 284 284 284 284 283 283 283 282 282 282 282 281 281 281 281 281 281 282 282 282 282 282 282 282 282 281 281 280 280 280 279 279 279
300 300 300 300 299 299 298 297 297 295 294 293 292 291 290 290 291 291 291 290 290 289 287 286 286 285 285 285 284 286 290 293 294 294 293 293 293 293 293 292 292 291 291 290 290 289 287 286 285 285 284 284 284 285 284 284 284 283 283 282 282 282 281 281 281 281 281 281 281 281 281 282 281 281 281 281 281 281 280 280 279 279 279 278 279
298 299 299 298 297 297 296 296 295 294 293 293 291 290 290 290 290 290 289 289 288 288 286 286 285 284 284 284 286 290 293 294 293 293 293 293 293 293 293 292 292 291 291 290 290 289 287 286 286 285 284 284 285 285 284 284 284 283 282 282 281 281 281 280 280 281 281 281 281 281 281 281 281 280 280 280 280 280 279 279 279 279 279 279 279
297 297 296 296 296 295 294 293 293 292 292 291 290 289 290 290 289 289 288 288 287 287 286 285 285 284 284 286 289 293 293 293 293 293 293 293 293 293 293 292 292 291 291 290 290 289 287 286 286 285 285 285 285 284 284 284 283 283 282 282 281 281 280 280 280 280 281 280 280 280 280 280 280 280 280 280 280 279 279 279 279 279 279 279 279
296 295 295 295 295 294 293 292 291 290 289 289 288 288 289 288 288 287 287 287 286 286 286 285 285 285 285 287 291 293 293 293 293 293 293 293 293 293 292 292 291 291 290 290 289 288 287 286 285 285 285 284 284 284 284 283 283 282 281 281 281 280 280 280 280 280 280 280 280 280 280 280 280 280 280 280 280 279 279 279 279 279 279 279 279
294 294 293 293 293 292 291 290 289 288 287 287 287 287 287 287 286 286 286 286 285 285 285 285 285 285 286 288 291 292 292 292 293 293 293 293 292 292 292 292 291 291 290 289 288 287 286 285 285 285 284 284 284 283 283 282 282 282 281 281 281 281 281 281 281 281 281 281 280 280 280 280 280 280 280 280 280 279 279 279 279 278 278 278 278
294 293 293 292 291 290 290 289 289 288 287 286 286 287 286 286 286 285 285 285 285 285 285 284 284 285 286 288 291 292 292 292 292 292 293 292 292 292 292 291 291 290 289 288 287 286 286 285 284 284 283 283 282 282 282 282 282 282 282 282 281 281 281 281 281 281 281 281 280 280 280 280 280 280 279 279 279 279 279 278 278 278 278 278 278
292 292 291 291 291 290 289 288 288 287 286 286 286 286 285 285 285 285 285 285 285 284 284 284 284 285 286 288 291 292 292 292 292 292 292 292 292 292 291 291 290 288 287 287 286 285 285 284 283 283 282 282 282 282 282 282 282 282 282 281 281 281 281 281 281 281 280 280 280 280 280 280 280 279 279 279 279 279 278 278 278 277 277 277 277
291 291 290 290 289 289 288 287 286 286 285 285 285 285 284 284 284 284 285 284 284 283 283 284 284 285 287 289 292 292 292 292 292 292 292 292 291 291 290 289 288 287 286 286 285 284 283 283 282 282 282 282 282 282 282 281 281 281 281 281 281 280 280 280 280 280 280 280 280 280 279 279 279 279 278 278 278 278 278 278 277 277 276 276 276
290 290 289 289 288 287 287 286 286 285 285 284 285 284 284 284 284 284 284 284 284 283 283 283 284 286 289 291 291 291 291 291 291 291 291 291 291 290 289 288 287 286 285 285 284 283 282 282 282 282 282 282 281 281 281 282 281 281 281 281 280 280 280 280 280 280 280 280 279 279 278 278 278 278 277 277 277 277 277 276 276 276 275 275 275
290 288 288 288 287 286 286 286 285 285 284 284 284 284 284 284 284 284 284 284 283 283 283 284 287 289 291 291 290 290 290 290 291 291 290 290 289 289 288 286 285 284 284 283 282 282 282 282 282 282 282 281 282 282 282 281 281 281 281 280 280 280 280 280 280 279 279 279 278 278 278 278 277 277 277 276 276 276 276 275 275 275 274 274 274
Wind_Speed
19 17 15 15 15 13 14 17 19 18 19 20 18 15 15 16 16 17 17 17 17 16 17 17 18 18 21 23 23 22 22 22 23 23 23 23 23 23 23 22 19 16 15 15 15 15 15 16 16 17 18 17 17 18 18 18 19 19 20 20 20 19 20 20 20 20 21 21 21 21 21 21 21 22 22 22 22 22 23 23 23 23 24 25 25
21 20 17 16 18 17 15 17 17 16 18 19 16 15 17 17 17 17 18 18 18 17 17 17 17 18 20 21 22 22 22 22 22 22 23 23 23 23 22 22 22 19 16 15 14 14 14 15 15 16 17 16 16 17 18 18 18 19 19 19 19 18 18 19 19 20 20 20 20 20 20 20 21 21 21 21 21 22 22 23 23 24 24 25 25
23 22 20 19 21 19 16 17 18 17 19 19 17 17 18 18 18 18 18 19 19 18 17 17 17 17 18 20 21 22 22 22 22 21 22 22 22 22 21 21 21 20 18 15 13 13 13 13 14 14 15 15 16 16 17 18 18 18 18 18 17 17 17 18 18 18 19 19 19 19 19 20 20 20 20 21 21 22 22 23 23 24 24 25 25
24 24 22 23 23 20 18 19 19 19 20 20 19 19 20 19 19 18 18 19 18 18 18 17 17 17 18 19 20 21 21 21 21 20 20 20 20 19 19 18 18 19 19 16 13 13 13 13 12 12 13 14 15 16 17 17 17 17 17 16 16 16 16 16 17 17 17 18 18 19 19 19 20 20 20 20 21 21 22 22 23 24 24 25 25
24 25 25 25 25 22 21 21 20 20 21 20 20 21 22 21 19 19 18 18 18 18 18 17 17 17 17 18 19 20 20 20 20 19 18 18 18 16 16 15 15 15 17 18 15 13 12 13 12 13 13 14 14 15 16 16 16 16 15 15 15 15 15 15 16 16 17 17 17 18 18 19 19 19 20 20 20 21 21 22 23 23 24 24 25
25 26 27 27 27 25 24 22 20 21 22 22 23 24 24 23 21 20 20 19 19 19 18 18 16 16 17 18 19 19 19 19 19 18 18 17 16 15 15 14 14 14 15 17 17 15 13 13 13 13 13 14 14 14 14 14 14 14 14 14 14 14 14 15 15 15 16 16 17 17 17 18 18 19 19 19 20 20 21 21 22 23 23 24 24
26 27 28 28 28 28 27 25 23 24 24 25 25 26 26 26 24 23 22 20 20 19 19 18 17 16 16 17 18 19 18 19 18 17 17 17 16 15 15 14 14 14 13 14 14 15 15 14 14 14 13 14 14 13 13 13 13 13 13 13 13 13 13 14 14 14 15 15 16 16 16 17 17 18 18 18 19 20 20 21 22 22 23 23 23
27 28 29 29 29 29 29 28 27 28 27 26 27 27 27 27 26 25 25 23 22 20 19 19 18 16 15 16 17 18 18 18 17 16 16 16 15 15 15 14 14 13 12 11 10 11 13 14 15 15 14 13 13 13 12 11 11 12 12 12 12 12 12 13 13 13 14 14 14 15 15 16 16 17 17 17 18 19 20 20 21 22 22 22 23
28 28 29 30 30 30 30 30 31 31 29 28 29 28 28 27 26 26 26 26 25 23 21 20 18 17 15 15 15 17 18 17 16 15 15 15 14 14 14 13 13 12 11 10 9 10 10 10 12 14 15 14 13 13 12 11 10 11 11 11 11 11 11 12 12 12 13 13 13 13 14 14 15 16 16 17 17 18 19 19 20 21 21 22 22
30 28 28 30 31 32 31 31 33 32 31 30 30 29 29 29 28 26 25 27 27 25 24 22 20 18 16 14 14 16 17 16 15 15 14 14 13 13 14 13 13 12 12 11 10 10 9 9 9 11 13 13 12 12 12 12 10 10 11 11 11 10 10 11 11 11 12 12 12 12 13 13 14 14 15 16 17 17 18 18 19 20 21 21 21
31 29 28 30 32 33 33 33 34 33 33 32 31 31 30 30 29 27 25 26 27 27 26 24 21 19 18 15 13 14 16 15 15 15 14 14 13 13 13 13 12 12 12 11 11 11 10 9 8 8 9 9 9 10 12 13 11 10 9 9 10 9 9 9 10 10 10 10 10 10 11 12 12 13 14 15 16 16 16 17 18 19 19 20 21
32 30 30 31 33 34 34 34 35 35 35 34 34 33 33 32 30 29 27 25 25 27 27 26 23 19 16 15 13 13 13 14 14 14 14 13 13 13 12 12 11 12 11 11 12 11 11 10 8 8 7 7 7 7 9 11 11 11 9 8 7 8 8 7 8 9 8 8 9 9 9 10 11 13 13 14 14 14 15 16 17 18 19 19 20
32 32 33 33 33 34 34 35 36 36 37 37 36 35 34 33 31 30 30 28 26 26 28 28 24 18 13 12 12 11 10 11 13 13 13 13 13 12 12 11 11 11 11 11 12 12 12 11 9 8 7 6 6 6 6 7 9 10 11 9 7 6 6 6 6 7 7 7 7 7 8 9 11 12 12 12 13 13 14 15 16 17 18 19 19
33 34 35 35 33 33 34 35 36 37 37 37 37 36 34 34 33 31 29 29 28 28 31 28 21 18 16 11 7 6 7 7 10 12 13 13 13 12 12 12 12 11 11 12 12 12 11 11 10 8 7 6 5 4 5 5 6 7 10 11 9 6 4 4 5 5 5 6 6 7 8 9 10 11 11 12 12 13 14 15 16 17 18 18 18
33 35 35 36 34 33 34 36 37 38 37 36 36 36 36 36 36 34 30 28 26 29 33 28 21 21 17 8 4 4 4 6 9 11 13 14 13 13 13 13 12 11 11 12 12 11 11 10 9 8 6 5 4 4 4 5 5 5 7 9 8 7 4 3 3 4 4 5 5 6 8 9 10 10 11 12 12 13 14 15 16 16 17 18 18
34 35 36 35 35 34 34 36 37 38 38 38 37 37 38 39 39 38 34 30 26 29 32 28 24 22 13 4 5 5 3 8 11 9 11 12 12 13 14 13 14 12 12 12 12 12 11 10 9 8 7 5 4 4 4 4 5 5 5 5 4 5 4 3 2 3 3 4 5 6 8 9 10 10 11 12 13 14 14 15 16 16 17 18 19
33 35 35 34 34 34 34 36 36 37 38 39 40 40 41 42 42 41 40 36 31 31 32 28 25 26 18 8 7 3 3 9 12 7 9 12 11 12 13 13 14 13 13 13 13 12 12 11 10 9 8 7 5 5 5 4 4 4 4 3 3 2 3 3 2 2 3 4 5 6 8 9 10 11 12 12 13 14 14 15 16 16 17 18 19
31 32 34 34 34 33 33 35 35 36 38 39 40 41 42 43 44 43 42 40 35 32 34 31 24 25 22 13 9 5 4 13 11 3 6 10 11 12 12 13 14 14 14 14 14 14 13 12 11 10 9 8 7 6 5 5 5 4 4 4 3 3 3 3 2 1 3 4 5 6 8 9 10 11 12 13 14 14 15 15 16 16 17 18 19
31 31 33 34 34 33 33 34 36 38 38 39 40 41 43 44 44 44 41 38 35 33 36 35 28 26 25 17 11 7 8 14 10 4 5 6 10 12 12 13 15 15 15 15 15 15 14 13 12 11 10 9 8 7 6 5 5 5 5 5 5 5 5 5 5 5 6 6 7 8 9 10 11 13 13 14 14 15 15 15 16 17 17 18 18
31 31 32 32 32 32 32 34 36 38 38 39 41 42 43 43 42 42 40 36 35 34 35 37 33 31 29 23 15 10 11 13 13 10 6 3 7 9 11 14 16 16 15 15 16 16 15 14 13 12 11 10 9 8 7 7 6 6 6 6 6 7 7 8 8 9 9 10 11 11 12 12 13 14 15 15 15 15 15 15 16 17 17 18 18
31 30 30 29 29 30 32 33 35 37 38 38 39 40 41 41 41 42 40 38 38 35 33 37 37 33 32 30 20 13 13 11 13 13 7 4 5 6 10 12 14 18 17 16 17 17 17 16 15 14 13 12 11 10 9 8 7 7 8 8 8 8 9 10 11 12 13 13 14 14 15 15 16 16 16 16 16 15 16 16 16 17 17 18 18
31 30 29 29 29 31 32 33 34 36 37 36 36 38 40 42 43 43 42 41 40 37 33 36 38 33 32 34 26 19 16 12 13 14 7 6 5 7 15 17 14 17 19 18 18 18 18 17 17 16 15 14 13 12 11 10 9 9 9 9 9 10 11 12 12 14 14 15 16 16 17 17 17 17 17 17 16 16 16 16 17 17 18 18 18
32 31 30 30 30 31 31 32 33 34 34 34 35 37 39 41 41 41 42 42 40 38 35 33 35 32 30 33 32 28 24 18 18 17 10 7 6 7 16 19 15 16 18 19 19 18 19 19 19 17 17 16 15 14 13 12 12 12 11 11 11 12 12 13 14 15 15 16 17 17 18 19 19 19 19 19 18 17 17 17 17 18 19 19 18
30 30 31 31 31 32 31 31 31 32 33 34 35 36 37 39 39 39 40 40 39 37 34 32 33 33 30 30 31 31 29 23 20 19 15 12 10 9 14 16 12 12 16 18 18 19 20 20 20 19 19 18 17 16 15 14 14 14 13 13 13 13 14 14 15 16 16 17 18 19 19 20 20 20 20 20 20 19 18 18 18 19 19 19 19
30 30 31 32 33 34 34 33 32 32 33 33 34 35 36 36 36 38 39 40 39 37 35 33 32 33 32 31 30 30 28 21 17 18 17 15 12 11 14 14 10 9 13 17 16 17 20 21 21 20 20 20 19 18 17 17 16 16 15 15 15 15 15 16 16 17 18 19 20 20 21 22 22 21 21 22 21 20 19 19 19 20 20 19 20
31 30 30 31 33 34 35 35 34 33 33 33 34 35 36 36 36 37 39 40 40 39 37 34 30 29 30 29 28 28 26 21 18 17 17 18 17 16 15 10 8 10 12 15 16 15 17 21 22 22 22 22 21 20 19 19 19 19 18 17 17 17 17 17 17 18 19 20 22 22 23 23 23 23 23 23 23 22 21 21 21 21 20 20 20
31 29 29 31 33 33 33 33 33 33 33 33 34 36 36 36 36 37 38 39 39 37 35 32 28 26 27 27 25 25 24 22 19 17 18 19 19 20 19 11 5 6 8 11 15 16 16 17 19 22 23 23 22 22 21 20 21 21 20 19 19 19 19 19 19 20 21 22 23 24 24 24 25 25 25 25 25 24 24 23 23 23 21 21 21
29 28 29 31 33 33 32 32 33 33 33 33 34 35 35 35 35 36 37 38 38 36 32 30 28 26 26 27 26 25 25 24 21 18 18 18 16 17 19 17 10 4 3 6 10 14 16 15 16 18 20 21 21 21 21 22 22 23 22 21 21 22 22 22 21 22 23 24 24 25 25 26 27 27 27 27 26 26 26 26 26 24 22 21 22
29 28 29 31 33 33 33 33 33 34 33 33 33 33 34 34 35 35 36 37 37 36 32 28 27 27 27 27 26 25 24 23 21 18 17 16 15 15 16 17 14 8 4 3 7 11 13 16 16 13 14 16 16 17 19 20 21 22 22 22 22 22 22 23 24 24 25 25 26 26 26 27 28 28 28 28 27 27 27 27 26 24 23 23 23
28 28 28 31 33 33 33 34 34 35 34 33 32 32 32 33 33 34 34 34 34 34 32 29 26 26 27 26 25 24 22 21 20 18 16 15 15 16 15 14 13 12 9 5 4 7 9 13 15 11 11 12 13 14 15 16 18 19 20 21 21 21 22 23 25 26 26 26 27 27 27 28 28 29 29 28 28 28 27 27 26 25 25 25 25
27 28 28 30 31 32 33 34 35 35 34 33 32 31 32 31 31 31 32 32 33 32 31 30 27 26 25 25 24 23 22 21 19 18 17 17 17 18 16 14 12 11 11 7 3 3 3 6 10 10 11 12 13 13 14 15 16 17 19 20 21 22 23 25 26 26 26 27 27 27 27 28 28 28 28 28 28 28 27 27 27 27 28 27 26
27 27 27 28 30 30 30 32 33 33 32 32 31 31 31 30 29 29 30 31 32 31 30 29 28 27 25 25 24 23 23 22 21 20 19 19 19 18 16 14 11 9 8 7 5 3 1 2 6 8 10 12 13 14 15 16 17 18 20 21 22 23 24 25 25 25 26 26 26 26 26 26 27 27 28 28 28 27 26 26 27 28 29 27 25
27 26 26 26 27 28 28 29 31 31 30 30 31 31 30 29 28 28 29 29 29 30 29 27 27 27 26 26 24 24 24 23 22 21 21 20 19 17 14 12 11 8 6 6 5 2 1 3 5 8 10 11 13 15 16 17 18 20 21 22 22 24 25 25 26 26 26 26 25 26 25 25 26 26 27 27 27 26 25 25 27 28 29 28 27
26 25 24 24 25 26 27 29 29 29 29 29 29 30 29 29 29 28 28 28 28 28 28 28 27 27 27 26 26 26 25 24 23 22 22 20 19 17 15 12 10 7 5 4 4 2 2 5 7 9 10 12 14 16 17 19 20 21 23 24 24 25 26 27 28 28 27 26 26 26 25 25 25 25 26 26 26 25 25 25 27 29 29 29 29
25 25 24 23 24 25 27 27 28 27 27 27 27 28 28 28 29 30 29 29 29 29 29 29 28 28 28 28 29 29 27 25 25 24 22 21 19 18 15 12 10 8 5 4 3 2 3 7 9 10 12 14 16 18 19 20 22 23 24 26 27 28 29 29 30 31 29 28 27 26 26 25 25 25 26 27 26 26 26 25 26 27 29 29 29
26 25 24 24 23 24 25 26 26 25 25 25 26 26 27 28 28 29 29 29 30 31 31 30 30 30 31 31 31 31 28 27 27 25 23 21 19 18 15 12 10 8 6 5 3 2 3 7 11 13 14 15 17 18 19 22 23 24 26 28 28 29 31 31 32 32 31 29 28 27 27 26 26 27 27 28 27 27 27 26 25 26 28 28 28
25 25 25 24 24 23 23 23 23 23 24 25 26 27 27 27 27 27 28 28 29 30 30 31 31 32 33 33 33 31 30 29 28 26 24 21 18 16 14 12 10 8 6 5 4 4 5 9 14 17 16 16 18 19 20 21 23 24 26 28 29 30 32 33 33 33 32 31 29 29 29 28 28 28 29 29 29 29 29 28 27 27 28 29 29
25 25 25 24 23 22 22 22 22 23 24 25 26 27 26 26 25 25 26 27 28 29 30 31 32 33 34 34 33 32 30 30 29 26 23 20 17 15 13 11 8 6 4 4 5 6 8 12 15 18 18 18 19 21 20 20 22 24 26 29 31 32 32 34 35 35 32 31 31 31 31 30 31 31 30 31 30 30 31 30 30 30 31 30 29
25 26 25 24 23 22 22 23 23 23 23 24 25 25 25 25 26 25 25 27 28 28 29 30 32 33 33 33 32 31 30 30 29 26 22 18 16 13 11 8 6 4 3 3 5 7 10 13 15 18 19 18 19 21 21 19 20 23 25 28 33 34 32 33 36 36 33 32 33 33 33 33 33 33 32 32 32 32 32 31 32 32 31 30 30
25 25 25 24 22 21 22 22 22 22 22 23 24 24 24 25 26 26 26 27 28 28 29 30 31 31 31 31 31 30 29 27 24 21 19 17 15 13 10 7 5 4 2 3 5 7 10 13 15 17 18 18 19 20 20 18 19 23 24 24 29 34 34 34 36 35 32 32 33 34 34 33 33 34 34 33 34 33 32 32 32 32 31 30 31
24 24 23 22 21 21 21 21 21 22 22 23 24 24 24 25 26 26 27 29 29 30 30 30 31 31 31 31 30 29 26 23 21 19 17 15 13 11 10 8 6 4 2 2 4 7 10 12 15 15 16 18 18 19 20 19 19 23 25 24 27 31 33 35 37 35 30 30 31 32 32 32 32 33 33 34 35 34 32 33 32 32 33 33 31
23 23 22 21 20 20 20 20 21 22 22 23 24 24 25 25 25 25 27 29 30 31 32 32 31 31 31 31 29 27 24 22 21 19 17 14 10 8 7 6 4 4 3 3 5 8 10 12 14 14 15 18 19 18 20 21 21 23 25 24 26 29 30 30 34 35 29 24 26 29 30 30 30 32 33 34 34 33 32 33 33 32 33 32 30
22 22 21 20 19 19 19 19 21 22 22 23 23 24 25 24 24 26 28 29 30 32 33 33 33 33 32 31 28 26 24 23 21 18 14 11 8 5 4 3 2 3 3 5 7 9 11 13 14 15 16 20 22 19 19 22 22 22 23 24 25 27 26 24 27 31 27 19 20 25 29 30 29 29 31 33 32 32 33 33 32 32 30 29 28
22 21 20 20 19 18 18 19 20 20 21 21 22 23 23 23 24 26 29 31 32 33 34 34 34 34 33 31 28 26 24 22 18 15 11 8 5 3 3 4 5 7 8 8 9 11 12 13 16 18 17 21 24 21 18 21 23 24 25 25 24 24 24 24 25 28 27 23 23 27 32 35 32 29 32 34 33 33 34 33 32 30 29 30 30
22 21 19 18 18 18 18 19 19 19 19 20 20 20 20 21 23 26 29 31 32 33 34 34 36 36 35 33 30 27 23 19 15 11 8 5 3 4 5 7 9 10 11 12 12 12 13 14 19 21 20 20 24 24 21 22 24 26 26 26 25 24 24 26 28 31 33 31 30 30 32 36 35 31 32 36 35 34 34 34 33 31 30 29 28
21 20 18 17 17 18 19 19 19 19 19 20 20 19 19 21 23 25 28 30 30 31 32 34 36 36 35 34 31 27 23 18 13 8 5 3 3 5 7 10 12 13 14 14 13 13 15 16 20 24 23 22 25 27 26 24 24 26 26 27 27 25 26 30 32 34 35 34 30 27 27 31 33 30 31 35 34 33 34 34 33 30 28 28 28
21 20 18 17 17 17 18 19 19 19 19 19 19 19 20 21 23 24 26 27 28 30 31 34 35 35 34 32 28 24 19 15 10 6 3 3 4 6 10 12 15 16 15 15 15 16 18 19 20 23 24 23 24 26 26 25 25 25 26 27 27 27 29 31 32 34 35 33 28 22 22 27 29 28 30 34 34 34 35 34 32 29 26 27 28
20 19 18 17 17 17 17 17 17 18 18 18 18 18 19 22 23 24 25 26 27 28 29 32 33 33 31 28 24 19 15 12 8 4 2 3 6 9 11 14 16 16 16 16 17 18 18 18 19 21 21 21 21 22 22 22 22 23 25 26 27 26 26 27 27 29 31 31 28 22 22 26 27 27 29 32 33 35 36 35 33 30 27 27 27
20 19 18 17 17 16 16 16 17 17 17 16 17 18 19 22 23 24 24 25 25 25 27 30 31 29 27 23 20 16 12 9 5 3 3 5 9 11 13 14 15 15 16 17 17 17 17 17 18 19 19 18 18 19 19 19 20 21 23 25 25 24 23 21 20 22 27 30 27 22 20 23 25 25 27 28 30 33 35 35 35 32 28 26 25
20 19 18 17 16 15 15 15 16 16 16 16 16 18 19 21 23 24 24 24 24 24 26 29 29 27 24 21 16 13 9 6 4 4 5 8 10 11 13 14 14 15 15 15 15 15 16 17 17 18 18 18 19 20 20 20 20 20 21 23 25 24 22 19 19 22 26 26 24 20 19 23 25 26 26 26 28 32 32 30 30 28 23 21 21
19 18 17 16 16 15 14 14 14 15 15 15 16 18 19 21 23 24 24 24 24 25 28 29 28 25 22 19 15 11 8 6 6 6 8 9 10 10 11 12 13 13 13 13 14 15 15 16 17 18 19 20 20 19 20 20 20 20 20 22 24 24 22 22 22 20 16 17 22 23 22 23 25 26 26 20 17 23 28 26 23 22 20 18 20
Wind_Direction
172 180 183 169 164 178 183 172 165 164 165 163 158 163 174 175 171 166 162 158 154 149 147 145 142 140 140 139 137 135 132 130 129 128 127 125 121 118 117 114 110 106 105 103 100 98 97 94 92 92 89 85 83 81 78 76 74 72 70 68 65 64 63 63 64 63 63 63 61 60 58 56 55 53 51 49 48 46 44 42 40 39 36 34 32
177 183 183 175 176 188 190 177 169 173 176 168 165 178 180 173 167 163 160 157 153 151 150 148 145 143 144 143 141 139 138 135 133 132 131 130 128 126 126 123 118 112 107 104 102 101 101 99 96 93 91 87 85 82 80 77 73 71 69 67 65 64 63 64 64 64 64 63 61 60 57 56 55 53 51 49 48 46 43 41 39 37 34 32 30
183 185 185 181 185 190 186 180 179 184 182 171 172 184 178 169 165 163 162 160 157 156 156 153 149 147 148 148 146 144 143 141 138 136 136 135 134 131 130 128 124 118 109 101 100 102 103 103 100 97 93 90 87 84 81 76 73 70 68 66 65 64 65 65 65 65 64 63 61 59 58 56 54 52 51 48 46 44 42 40 38 35 33 31 29
188 187 188 186 188 190 184 183 187 187 182 175 178 182 174 168 168 167 166 164 161 159 157 156 152 150 152 151 151 150 148 146 143 141 140 139 139 136 134 133 130 123 115 107 102 103 105 103 103 102 98 94 90 86 82 77 72 71 69 67 67 67 67 68 67 66 64 62 60 59 57 56 54 52 49 47 45 42 40 39 36 33 31 29 26
196 191 192 192 191 190 186 186 189 187 183 180 178 177 174 172 171 171 168 165 162 159 158 156 153 152 154 155 155 155 153 152 150 147 145 144 144 141 138 137 135 130 123 119 111 104 104 105 106 104 100 98 93 88 83 79 75 72 71 71 70 71 71 69 68 66 63 62 60 57 56 54 52 50 47 45 43 41 39 36 33 30 28 26 24
203 196 194 196 193 191 191 189 187 187 186 183 180 179 179 177 175 173 168 167 163 161 161 155 151 152 153 158 160 159 158 156 154 153 151 147 147 147 143 140 140 138 132 129 122 113 107 105 105 103 100 97 94 92 87 82 79 75 74 76 74 73 73 70 68 65 63 61 59 56 55 53 51 48 45 43 41 39 36 33 30 27 25 24 22
207 202 197 197 196 193 194 192 189 189 188 186 185 183 185 182 180 175 168 168 165 162 162 156 152 151 151 158 162 161 160 159 157 157 156 155 155 154 150 148 147 144 142 139 133 125 119 111 104 99 98 98 96 94 91 88 86 81 79 79 77 75 73 71 68 66 63 60 58 55 53 51 49 46 43 41 39 36 33 30 27 25 23 21 19
207 206 201 198 198 197 198 199 196 194 192 192 192 190 189 185 183 182 176 169 165 162 163 159 153 151 152 156 160 163 162 161 161 161 162 164 166 165 160 158 155 151 150 149 143 137 136 132 121 109 100 99 99 97 96 94 91 88 86 82 78 76 75 72 69 66 63 60 57 53 51 49 47 44 42 39 37 34 31 28 25 22 20 18 16
207 207 205 200 201 201 201 203 202 200 199 198 198 196 193 187 183 187 184 174 167 164 162 158 155 154 154 153 157 164 165 165 166 168 171 172 172 171 168 165 161 158 157 155 150 146 148 148 141 125 109 102 101 99 95 95 95 93 90 86 81 77 74 71 69 65 62 59 55 51 48 47 44 42 40 37 34 31 28 25 22 19 16 15 13
210 208 209 206 204 204 203 204 204 204 203 200 200 199 196 192 187 185 184 179 172 168 165 161 158 156 154 154 160 164 166 168 171 173 175 175 175 173 172 171 169 165 161 158 154 154 155 153 154 143 128 119 112 105 101 96 92 95 93 88 83 77 72 68 65 62 59 55 51 48 45 43 42 40 37 34 31 27 24 21 18 15 13 12 10
212 207 210 211 208 205 204 204 204 204 203 200 200 199 196 192 188 183 180 178 177 173 168 162 158 157 157 157 161 164 167 170 175 178 177 176 177 176 177 176 176 173 169 166 161 160 160 155 158 156 144 136 124 121 124 111 93 86 88 88 85 77 68 63 61 59 57 52 47 43 40 38 38 36 34 31 27 23 20 17 14 11 10 8 7
215 213 213 213 210 207 205 206 206 205 203 200 200 202 200 194 190 185 178 173 174 173 169 165 156 150 154 160 166 168 170 175 179 179 178 178 179 180 180 179 179 180 178 176 172 166 163 158 156 155 148 143 136 139 147 137 115 97 85 81 82 79 67 57 56 54 52 48 43 37 33 33 32 31 30 26 22 18 15 12 10 8 7 6 4
222 221 218 215 212 208 207 207 207 206 206 206 206 205 203 197 189 184 179 172 169 171 171 166 154 144 146 154 164 171 173 183 185 181 180 180 183 185 184 181 181 185 183 180 180 175 171 168 164 162 156 151 150 148 159 164 151 133 115 98 80 74 68 57 50 44 42 39 35 29 23 25 27 26 24 19 15 12 10 8 6 6 4 2 360
225 223 219 216 213 210 210 209 208 207 207 207 207 205 202 196 188 181 179 176 173 173 174 170 161 154 152 141 146 175 185 195 191 185 185 185 189 190 186 185 185 187 187 185 185 183 182 181 175 171 167 161 164 163 168 179 177 166 146 124 99 77 64 55 46 33 30 26 24 19 14 18 20 18 15 11 8 5 5 4 2 1 359 357 356
224 220 217 215 214 214 213 212 211 208 206 204 204 204 201 197 192 186 180 177 175 177 180 181 172 156 145 140 153 165 205 223 208 198 194 192 193 192 191 191 188 186 188 189 192 191 189 188 184 180 178 178 179 177 180 183 179 172 163 150 127 99 72 49 37 23 18 11 9 10 8 11 11 9 6 3 1 359 359 358 357 356 354 353 353
218 216 214 213 215 217 216 213 211 210 208 206 204 204 202 199 196 193 186 179 174 179 185 188 183 168 148 128 155 152 235 212 190 196 202 197 196 197 197 196 191 188 191 195 195 195 194 191 191 189 190 194 196 193 191 190 184 177 177 184 165 120 97 77 40 10 5 2 3 6 4 2 1 359 357 355 354 353 353 352 352 351 350 350 350
215 214 214 214 214 217 218 215 212 211 210 209 209 208 206 203 200 197 194 190 183 181 186 189 195 192 178 155 155 174 245 172 162 181 205 201 199 200 203 203 197 191 196 204 201 198 200 198 199 200 201 205 204 206 206 200 192 190 190 198 210 174 141 128 92 17 358 357 359 2 358 353 351 351 349 348 347 346 346 346 346 345 345 346 346
214 215 215 215 216 217 218 217 217 216 214 212 211 209 207 205 203 200 199 199 192 183 186 188 195 200 192 184 187 204 171 152 148 161 199 206 204 200 206 206 200 196 203 212 208 204 205 206 208 209 211 213 211 212 214 214 208 206 210 211 221 232 229 219 214 274 311 325 337 344 346 344 342 342 341 340 339 339 340 341 340 340 340 341 341
215 217 218 217 218 219 222 224 222 219 215 213 212 211 209 206 204 202 201 201 196 189 189 188 191 199 199 200 207 217 187 169 167 153 156 205 207 201 211 209 201 202 210 217 212 209 210 211 215 217 217 219 221 222 221 227 229 228 237 243 248 257 263 268 270 277 290 302 313 321 328 333 333 333 334 333 332 333 335 335 335 335 337 336 335
218 220 219 218 220 223 226 227 223 218 214 215 215 214 212 208 205 205 205 203 202 201 195 190 192 198 198 203 217 221 198 189 195 180 141 151 191 199 214 214 212 209 213 220 216 214 216 217 220 222 224 225 227 233 235 238 243 248 256 262 269 276 280 285 290 294 299 304 308 313 318 322 325 326 328 328 327 328 329 330 330 331 331 329 329
219 219 219 220 222 225 227 227 222 217 213 214 214 214 213 211 209 210 209 208 208 209 204 197 198 199 195 200 211 205 189 193 202 188 146 125 165 189 194 198 216 217 215 220 219 219 221 221 224 226 229 232 234 238 243 249 254 261 266 270 275 282 287 292 297 301 304 307 310 313 315 318 320 322 324 324 323 324 325 324 325 326 324 322 325
220 222 222 222 222 224 227 226 221 216 214 213 212 213 213 213 214 215 214 212 211 211 210 207 206 204 198 196 196 189 183 189 199 191 162 141 155 183 185 183 199 210 212 216 217 220 224 224 226 230 233 235 239 241 246 255 261 265 269 275 280 284 289 293 298 302 305 308 311 313 314 316 317 319 320 320 320 321 320 320 320 320 317 317 323
223 224 224 223 221 220 221 220 216 213 214 213 213 214 215 215 217 217 216 215 214 213 213 211 209 208 203 199 197 194 192 194 195 189 171 151 144 167 186 190 198 204 206 213 217 220 224 228 229 232 236 238 242 245 249 257 262 267 272 275 280 284 288 293 297 301 304 306 308 310 312 314 315 317 317 318 319 318 315 315 315 314 312 314 320
224 224 223 221 219 214 211 209 208 210 213 214 214 216 217 218 218 218 218 217 215 214 212 212 211 209 207 207 207 204 202 201 197 193 190 184 168 160 174 184 197 207 203 205 216 223 227 232 233 234 238 241 245 247 251 258 262 267 272 274 280 283 287 292 296 299 302 304 305 307 309 310 312 313 314 315 316 314 310 310 310 308 308 312 315
222 223 222 220 217 211 207 206 207 210 214 216 217 218 219 220 222 222 221 220 217 214 213 213 214 212 210 211 212 210 207 206 206 204 203 196 176 160 167 174 176 181 190 197 209 224 231 235 237 237 239 243 248 251 254 259 263 267 270 274 279 282 286 289 293 296 299 302 303 305 306 307 308 310 311 312 312 309 305 305 305 303 306 309 309
222 222 223 221 218 214 212 211 212 214 217 219 220 221 222 223 225 224 223 223 219 215 214 214 214 214 211 210 209 208 206 207 209 206 199 192 181 166 159 162 162 155 171 196 207 217 230 236 237 238 241 245 249 254 257 260 265 269 270 274 279 281 285 288 292 296 298 300 301 303 303 303 305 307 308 308 306 304 302 302 300 299 302 304 303
224 225 228 227 223 221 219 217 218 219 220 221 222 222 223 224 226 226 225 224 219 214 213 212 213 213 210 207 202 198 198 198 198 195 190 190 190 180 165 151 138 149 169 194 210 223 234 239 239 239 242 246 251 256 259 261 266 270 272 275 278 281 283 286 292 295 296 297 298 300 301 301 303 305 305 304 303 301 302 301 298 296 298 299 300
228 230 232 231 227 225 224 223 223 224 223 224 225 225 224 225 226 226 226 224 219 215 214 213 215 214 209 204 197 190 190 191 189 189 189 190 195 194 183 171 157 148 172 188 213 232 236 234 237 242 245 248 253 258 260 262 265 270 273 276 279 281 283 285 290 293 294 295 296 298 299 299 301 302 302 302 300 300 301 300 298 296 296 297 297
231 233 233 231 227 226 227 229 230 228 226 226 227 228 227 227 227 227 227 225 220 216 215 213 213 210 203 198 195 190 188 188 188 188 190 191 190 191 193 189 177 162 152 183 218 229 229 226 232 242 247 250 256 261 264 266 268 271 275 277 280 282 283 284 287 291 293 294 296 297 297 298 299 300 300 300 299 299 299 299 296 293 293 294 295
231 232 232 230 229 229 231 234 233 230 227 226 227 229 229 228 228 228 227 224 219 214 213 212 206 200 195 193 194 193 190 188 186 184 185 184 180 178 181 187 185 175 158 150 209 221 218 222 230 244 256 260 265 267 270 272 272 274 276 278 280 282 283 284 287 290 293 294 294 295 295 297 298 299 299 299 298 299 298 296 292 290 291 292 292
231 231 231 231 232 233 235 235 231 228 226 225 226 225 226 226 225 226 224 221 218 213 211 211 206 200 195 191 192 192 191 187 179 175 176 175 173 173 172 172 175 174 160 137 137 169 170 214 233 251 266 270 273 275 278 279 278 279 280 281 283 284 284 285 288 290 292 293 293 294 296 297 298 298 297 297 298 298 297 293 290 289 291 291 292
230 231 233 234 234 235 235 233 229 226 225 225 225 224 222 222 221 221 220 218 215 211 209 209 207 205 200 194 193 191 186 180 172 168 167 169 170 169 169 167 160 158 155 136 127 140 78 292 264 264 267 269 272 277 281 283 285 285 283 283 284 285 285 286 288 290 291 292 294 294 296 297 297 297 295 296 297 297 295 292 291 291 291 290 290
230 231 233 234 236 237 236 234 231 229 228 227 227 225 222 220 219 219 218 216 213 209 207 205 203 203 200 194 189 186 182 174 166 162 161 163 164 160 158 158 148 143 148 132 122 142 284 293 283 279 277 277 277 279 283 286 287 288 286 286 286 285 287 289 291 292 292 294 294 294 296 296 297 296 295 296 297 297 295 293 292 291 289 289 290
230 232 234 234 237 238 238 236 234 231 230 229 227 224 222 221 219 219 219 216 212 207 205 202 198 197 195 190 182 178 177 171 161 158 158 158 156 151 148 149 143 137 141 135 130 163 260 282 289 290 289 287 286 288 289 289 291 291 289 290 292 291 293 294 295 297 297 298 297 297 298 298 298 297 297 298 298 298 296 295 293 290 289 290 292
230 233 235 236 239 239 238 236 234 232 231 229 227 224 224 223 220 220 219 217 212 208 203 199 195 191 187 183 178 174 171 164 156 155 155 153 151 147 144 148 149 143 141 137 135 168 272 284 286 289 292 293 293 295 294 292 292 292 291 294 297 296 297 298 298 299 301 301 301 300 299 298 298 297 297 297 297 296 297 297 294 290 289 291 293
231 232 233 235 236 237 235 233 233 233 231 230 228 226 225 225 222 220 218 216 213 210 205 199 193 189 185 180 175 172 168 160 153 152 152 150 150 150 148 151 155 154 154 155 161 203 268 279 279 282 287 291 292 293 293 292 293 293 293 296 297 297 298 299 298 299 302 303 302 300 299 298 297 297 297 296 294 293 295 296 294 291 290 290 290
231 231 231 231 231 232 234 235 235 234 234 233 230 227 225 224 223 221 217 214 213 211 208 202 195 190 187 182 175 171 166 157 151 152 154 153 153 154 155 157 158 163 172 187 207 230 257 274 279 282 285 289 291 293 293 292 292 292 293 295 296 297 299 300 300 300 302 302 301 300 300 298 297 297 297 296 294 292 292 294 294 292 291 290 290
231 229 229 229 229 233 237 239 238 237 236 233 230 227 224 221 220 219 215 212 210 210 207 201 196 192 188 182 174 169 165 158 155 156 157 156 157 159 160 159 162 175 193 217 235 250 263 273 279 283 286 289 292 294 296 295 292 292 294 297 298 298 298 301 302 302 302 301 300 301 300 298 297 296 295 294 293 291 291 292 294 294 293 291 289
227 226 226 227 230 236 240 240 238 237 233 230 228 225 221 218 216 213 209 207 207 206 203 198 194 191 186 179 171 167 166 165 163 161 159 158 157 157 154 150 153 168 199 240 255 264 269 272 275 279 284 289 291 293 298 299 293 289 290 293 297 300 301 301 301 302 302 301 300 300 299 297 296 295 293 292 292 290 290 291 292 292 290 288 287
225 226 227 229 232 236 237 236 235 233 228 225 224 221 217 215 213 209 205 204 202 199 197 194 191 188 182 175 168 166 167 167 163 157 154 152 148 143 139 134 132 138 167 241 258 267 267 268 272 277 283 288 291 293 297 295 287 287 291 291 292 298 302 300 299 300 299 298 298 298 297 294 293 293 292 290 290 289 287 288 289 288 288 288 289
226 227 229 231 233 234 233 232 232 228 224 222 220 217 213 211 210 207 203 200 197 194 190 187 186 183 176 169 165 165 164 159 152 146 142 140 138 136 134 130 126 129 156 222 251 265 265 264 270 278 282 284 288 292 293 291 287 291 298 297 292 295 299 299 297 296 295 295 295 294 294 293 291 291 289 287 288 287 286 287 288 289 292 294 291
224 226 228 230 232 233 232 229 226 224 222 222 220 216 212 210 208 204 199 196 195 191 186 182 180 175 169 164 163 161 157 150 145 142 138 136 136 133 132 134 137 144 172 226 252 263 264 263 270 278 279 280 285 289 292 295 296 297 299 299 295 297 299 298 297 297 298 297 294 291 292 295 294 291 288 286 287 288 288 289 291 292 295 295 292
221 222 224 227 230 231 230 226 222 222 222 222 220 215 213 211 208 202 197 194 193 191 186 180 173 166 162 161 161 159 156 150 146 143 141 142 142 139 148 170 198 219 237 253 262 265 265 267 274 277 275 281 289 293 296 299 302 300 299 298 296 297 299 297 296 300 304 305 301 297 297 300 298 292 289 287 287 289 290 290 293 293 292 291 291
217 219 220 224 227 226 223 220 220 221 221 221 218 215 213 210 207 203 199 196 193 189 185 178 169 163 162 163 162 160 157 152 150 149 149 149 153 176 214 237 250 258 263 266 269 271 271 275 280 278 277 285 292 296 299 302 303 301 300 298 296 296 297 294 292 295 299 303 305 304 300 300 298 293 290 289 288 289 290 291 291 290 289 290 292
215 217 219 223 225 223 219 217 217 217 216 215 212 210 208 204 204 204 201 197 193 188 183 176 169 167 167 166 164 160 157 157 158 155 152 159 187 221 245 258 262 264 266 270 276 281 283 284 282 282 284 289 292 296 299 300 301 301 300 299 298 297 295 292 290 291 295 298 300 299 295 295 296 292 288 289 290 290 289 289 289 288 289 291 291
211 213 217 219 219 219 216 214 214 213 211 210 206 203 200 200 201 202 199 196 192 188 183 177 173 171 171 170 166 161 159 162 164 158 162 191 223 244 258 264 266 267 267 271 280 286 290 289 285 287 291 292 292 296 300 301 300 299 299 298 299 300 296 293 292 293 295 297 297 293 288 291 295 293 289 291 293 292 290 289 289 289 289 291 290
210 212 214 215 214 214 214 213 213 211 211 209 206 203 201 200 200 199 196 193 189 185 181 177 175 175 175 173 168 162 160 162 163 163 181 219 247 261 267 268 268 270 271 277 286 292 296 296 292 294 298 298 297 299 303 305 303 302 302 301 301 303 300 298 298 297 298 300 300 292 284 289 296 293 291 294 296 294 293 292 290 288 288 290 291
207 209 211 212 212 210 208 209 208 207 208 208 205 201 198 198 197 194 192 190 187 184 180 177 176 177 175 172 167 163 161 159 162 177 206 261 273 273 273 271 270 272 276 284 293 297 300 302 302 303 303 301 299 299 302 304 305 306 307 304 303 304 300 296 295 296 299 303 304 298 287 290 296 295 292 297 299 296 295 295 292 290 288 289 290
200 205 206 205 206 204 201 200 200 199 199 201 200 197 196 195 193 189 188 186 184 182 178 175 176 175 172 171 168 164 162 162 173 209 261 281 280 277 275 273 272 276 285 293 299 303 306 307 309 308 302 297 297 301 304 306 309 311 306 299 300 301 295 290 292 295 299 302 306 307 297 294 301 301 298 300 300 296 295 295 294 295 294 291 289
197 199 199 196 197 198 197 197 198 197 195 196 197 196 195 195 192 188 185 180 178 178 173 171 172 171 170 171 170 167 170 183 209 253 275 276 275 275 275 277 279 285 294 302 306 310 312 312 311 311 308 307 309 311 313 313 313 310 299 290 293 296 292 290 294 296 297 300 309 317 310 302 305 307 305 305 300 296 296 296 297 300 299 293 288
192 191 190 188 187 190 193 195 197 196 192 190 193 194 193 194 192 188 183 178 175 172 168 165 166 169 169 170 172 177 193 218 241 261 267 268 270 274 277 281 285 292 304 313 316 317 316 314 315 318 319 320 321 319 320 321 320 315 303 293 293 293 289 286 289 293 296 301 308 312 308 304 307 309 309 307 300 297 300 300 300 302 298 291 286